Dewpoint
66 70 71 72 73 72 72 72 71 72 72 73 73 73 73 74 74 74 74 74 74 74 73 72 72 71 70 70 71 72 73 71 70 70 70 69 68 69 69 69 69 67 69
67 70 71 72 72 72 72 72 72 72 72 73 73 72 72 73 73 73 74 74 74 73 73 72 71 71 69 70 71 72 72 71 70 70 71 69 69 68 68 68 68 67 68
69 70 70 71 72 72 73 72 72 72 73 73 73 72 72 73 73 73 73 73 73 73 72 72 71 71 70 71 71 71 71 70 70 70 70 68 67 68 67 67 68 68 67
69 70 70 70 71 72 72 72 72 73 73 72 72 72 72 73 73 73 73 73 73 73 71 71 71 71 71 71 70 70 70 70 70 69 67 67 67 67 66 67 67 67 67
69 70 69 69 70 71 71 72 72 73 72 72 72 72 72 72 72 73 72 72 72 73 71 71 71 71 70 70 70 69 70 70 69 67 66 67 67 67 67 67 67 68 68
69 69 69 68 69 70 71 72 72 72 72 71 71 72 72 72 72 72 71 71 72 73 72 72 71 70 69 69 69 69 69 69 67 66 66 67 67 67 67 68 68 68 68
68 69 69 68 69 70 70 71 71 71 71 71 72 72 72 72 72 71 71 71 71 72 72 71 71 70 69 69 68 68 68 67 66 65 65 67 67 68 67 68 68 68 68
69 69 69 70 69 69 69 69 69 69 70 71 71 71 72 71 71 71 70 70 71 70 70 70 69 69 69 68 68 67 66 66 66 65 66 66 68 69 68 68 68 68 68
47 51 59 66 69 69 68 68 68 68 69 69 70 70 70 70 69 70 70 70 70 70 69 69 69 68 68 68 67 66 65 65 65 65 66 66 68 69 68 68 67 68 68
46 47 48 51 54 57 60 67 68 67 67 68 69 69 68 68 68 69 69 69 69 69 69 69 68 68 68 67 66 65 65 65 64 64 64 64 67 68 68 67 68 68 68
44 44 44 46 50 52 55 57 60 63 66 67 68 68 66 68 68 68 68 68 69 69 69 69 68 67 67 66 66 65 65 64 62 62 62 64 68 68 68 68 68 68 67
41 41 42 42 44 46 49 55 57 57 60 59 64 67 67 67 67 68 68 67 68 68 68 68 67 67 66 65 66 66 65 64 62 62 64 65 68 67 67 68 68 68 67
40 41 41 40 41 42 45 50 52 54 58 58 56 59 65 67 67 67 66 67 66 68 67 67 66 66 66 65 65 65 65 64 63 63 65 65 67 68 68 67 68 67 67
38 40 40 39 38 39 42 42 47 48 50 53 51 53 57 65 67 66 66 66 65 66 66 66 67 66 65 65 65 64 64 64 64 64 64 64 66 68 68 69 67 67 66
37 38 39 39 38 37 37 39 41 44 46 48 48 51 53 55 62 67 66 66 66 65 66 65 66 65 65 64 65 65 65 64 63 62 62 63 65 67 69 69 68 66 66
37 37 38 38 38 37 36 37 39 41 41 42 44 47 50 53 56 63 66 66 66 66 66 65 65 65 64 64 64 65 65 64 63 61 62 62 62 65 67 68 67 66 66
36 37 37 37 38 37 36 36 38 39 40 40 41 43 45 48 52 56 59 66 66 66 65 65 64 63 62 63 63 64 64 64 63 62 62 63 63 63 64 66 66 66 65
35 35 36 36 37 37 35 36 37 38 39 39 40 41 42 45 46 49 54 60 65 65 65 64 64 63 63 63 63 63 65 64 63 63 62 63 64 64 64 64 65 65 65
35 35 35 35 36 36 36 36 37 37 38 38 39 40 41 43 45 46 47 51 58 65 65 64 63 63 62 62 62 63 64 64 63 64 62 63 63 64 65 63 63 63 64
35 35 35 35 35 36 36 35 35 36 37 37 38 39 41 42 43 45 46 48 51 58 65 64 63 63 62 62 63 62 63 63 63 63 62 63 63 64 64 64 63 63 62
35 33 34 34 34 35 34 34 34 35 35 37 37 38 41 42 43 44 46 48 50 51 61 64 63 62 62 62 60 60 60 62 62 62 62 62 62 63 64 64 63 64 63
32 32 33 33 33 34 34 34 34 35 36 36 37 38 40 41 43 43 44 45 48 51 52 62 63 62 62 62 59 58 57 59 61 62 62 62 62 63 63 64 63 64 64
31 32 31 33 33 34 35 34 34 35 35 36 36 37 38 40 42 43 43 45 46 48 51 55 62 62 60 61 61 58 56 55 59 60 61 62 62 62 62 63 63 63 63
31 31 31 32 33 34 34 34 34 34 34 35 36 37 38 39 42 44 43 44 45 47 50 53 61 62 62 60 61 61 58 56 55 55 59 61 62 61 61 62 62 62 62
30 30 31 31 33 33 34 34 35 34 35 36 37 37 38 40 42 43 44 44 45 47 49 51 57 61 62 61 60 60 56 55 55 54 54 57 60 61 61 61 61 62 62
29 30 30 31 31 33 33 33 33 33 34 35 36 37 38 39 40 42 44 44 46 47 48 51 52 60 61 62 61 60 58 55 55 54 52 56 57 60 60 61 61 61 61
Lifted_Index
-5 -5 -5 -6 -6 -6 -5 -5 -5 -5 -5 -5 -5 -5 -5 -6 -6 -6 -6 -6 -6 -5 -5 -4 -3 -3 -2 -2 -2 -3 -3 -3 -2 -3 -2 -2 -2 -2 -2 -2 -2 -2 -2
-5 -5 -5 -5 -6 -6 -5 -5 -5 -5 -5 -5 -5 -5 -5 -5 -6 -6 -6 -6 -6 -5 -5 -4 -4 -3 -2 -2 -2 -3 -3 -2 -2 -3 -3 -2 -2 -2 -2 -2 -1 -1 -1
-6 -5 -5 -5 -5 -5 -5 -5 -5 -6 -6 -6 -5 -5 -5 -5 -6 -6 -6 -6 -6 -5 -5 -4 -4 -3 -3 -2 -2 -3 -3 -2 -2 -2 -2 -2 -2 -2 -2 -1 -1 -1 -1
-6 -6 -5 -4 -5 -5 -5 -6 -6 -6 -6 -6 -5 -5 -5 -5 -5 -5 -5 -5 -5 -5 -5 -5 -4 -4 -3 -2 -2 -2 -2 -2 -2 -2 -2 -2 -2 -2 -2 -1 -1 -1 -1
-6 -5 -5 -4 -4 -4 -5 -5 -6 -6 -6 -6 -5 -5 -5 -5 -5 -5 -5 -5 -5 -5 -5 -5 -4 -3 -3 -2 -2 -2 -2 -2 -2 -1 -1 -1 -2 -2 -2 -1 -1 -1 -1
-6 -5 -5 -4 -4 -4 -5 -5 -5 -5 -5 -5 -6 -6 -6 -6 -5 -5 -5 -5 -5 -5 -5 -5 -4 -3 -2 -2 -2 -2 -2 -2 -1 -1 -1 -1 -2 -2 -2 -2 -2 -2 -2
-6 -5 -5 -5 -4 -4 -4 -4 -4 -4 -5 -5 -6 -6 -6 -6 -6 -5 -5 -5 -5 -5 -5 -5 -4 -3 -2 -2 -2 -2 -2 -1 -1 -0 -0 -1 -2 -3 -3 -3 -2 -2 -2
-5 -5 -5 -5 -4 -4 -3 -3 -3 -3 -4 -5 -5 -5 -6 -6 -6 -5 -5 -5 -5 -5 -4 -4 -4 -3 -2 -2 -2 -2 -1 -1 -0 -0 -0 -1 -2 -3 -3 -3 -2 -2 -2
-3 -3 -4 -4 -4 -3 -3 -3 -3 -3 -3 -4 -4 -5 -5 -5 -5 -5 -5 -5 -5 -4 -4 -4 -3 -3 -2 -2 -2 -2 -1 -0 -0 -0 -0 -1 -2 -3 -3 -3 -2 -2 -2
3 1 -1 -2 -3 -3 -3 -3 -3 -3 -3 -3 -3 -4 -4 -5 -5 -5 -5 -5 -5 -4 -4 -4 -3 -3 -2 -2 -2 -2 -1 -1 -0 -0 -0 -0 -1 -2 -3 -2 -2 -2 -2
8 7 4 2 1 0 -0 -1 -2 -3 -3 -3 -3 -3 -4 -4 -5 -5 -5 -5 -5 -4 -4 -4 -3 -3 -2 -2 -2 -2 -2 -1 -0 0 0 -0 -1 -2 -2 -2 -2 -2 -2
9 9 8 7 6 5 5 3 2 1 -1 -2 -3 -3 -3 -4 -5 -5 -5 -5 -5 -5 -4 -4 -3 -3 -2 -2 -2 -2 -2 -1 -0 0 1 0 -1 -2 -2 -2 -2 -2 -2
9 9 9 9 9 8 8 8 7 6 4 2 -0 -1 -2 -3 -4 -5 -5 -5 -5 -5 -5 -4 -4 -3 -3 -2 -2 -2 -2 -1 -1 -0 0 0 -1 -2 -2 -2 -2 -2 -2
8 8 9 9 9 10 10 10 10 9 8 7 5 3 1 -2 -3 -4 -4 -5 -5 -5 -5 -4 -4 -3 -3 -2 -2 -3 -2 -2 -1 -0 0 -0 -1 -2 -2 -2 -2 -2 -1
9 9 9 10 10 11 11 11 11 10 10 9 8 7 5 2 -1 -3 -4 -4 -5 -5 -5 -5 -4 -3 -3 -3 -2 -3 -2 -2 -1 -1 0 -0 -1 -2 -2 -2 -2 -1 -1
9 10 10 11 11 11 11 11 11 11 10 10 10 9 8 6 3 -0 -3 -4 -4 -5 -5 -5 -4 -4 -3 -3 -3 -3 -3 -2 -2 -1 -0 0 -0 -1 -2 -2 -2 -1 -1
10 10 11 11 11 11 11 11 11 11 10 10 10 10 9 9 7 4 0 -2 -4 -5 -5 -5 -5 -4 -4 -3 -3 -3 -3 -3 -2 -1 -1 0 0 -1 -2 -2 -2 -1 -1
11 11 12 12 11 11 11 11 10 10 10 10 10 9 9 9 9 8 5 1 -2 -4 -5 -5 -5 -4 -4 -4 -3 -3 -3 -3 -2 -2 -1 -0 0 -0 -1 -2 -2 -1 -1
12 12 12 12 12 12 11 11 10 10 9 9 9 9 9 9 9 9 8 5 1 -2 -4 -4 -4 -4 -4 -4 -4 -3 -3 -3 -2 -2 -2 -1 -0 -0 -1 -2 -1 -1 -1
12 12 12 12 12 12 12 11 10 10 9 8 8 8 8 8 8 8 8 7 5 1 -2 -4 -4 -4 -4 -4 -4 -4 -3 -3 -3 -2 -2 -1 -1 -1 -1 -1 -1 -1 -1
12 12 12 13 12 12 11 11 10 9 8 8 8 8 8 8 8 8 8 8 7 4 0 -2 -4 -4 -4 -4 -4 -4 -4 -4 -3 -2 -2 -1 -1 -1 -1 -1 -1 -1 -0
11 12 12 12 12 12 11 10 10 9 8 8 8 8 8 8 8 8 7 7 7 6 3 -0 -3 -4 -4 -4 -4 -4 -4 -4 -3 -3 -2 -2 -1 -1 -1 -1 -1 -1 -0
12 12 12 12 12 12 11 10 9 8 8 7 7 7 7 8 8 8 8 7 7 7 6 2 -1 -3 -4 -4 -4 -3 -4 -4 -3 -3 -2 -2 -1 -1 -1 -0 -0 -0 -0
12 12 12 12 12 12 12 10 9 8 8 7 7 6 6 7 7 7 7 7 7 7 7 5 1 -2 -3 -4 -3 -3 -4 -4 -3 -3 -2 -2 -1 -1 -1 -1 -0 -0 -0
13 12 12 12 13 13 12 11 9 8 8 7 7 6 5 6 6 6 7 7 7 7 7 6 3 -1 -3 -4 -4 -3 -4 -4 -4 -3 -3 -2 -2 -2 -1 -1 -1 -0 -0
13 13 12 13 13 13 12 11 10 8 8 7 7 6 5 5 6 6 6 7 7 7 7 7 4 0 -2 -3 -4 -4 -4 -4 -4 -3 -3 -3 -2 -2 -2 -2 -1 -1 -0